Cincinnati, OH

4:42 AM EDT on October 17, 2019 (GMT -0400)
Cincinnati Municipal-Lunken

Weather History for KLUK - September, 2019

Change the Weather History Date:

Monday, September 23, 2019

  Actual Average Record
Temperature  
Mean Temperature 76 °F -  
Max Temperature 86 °F 73 °F 96 °F (2010)
Min Temperature 62 °F 53 °F 35 °F (1974)
Cooling Degree Days 11    
Growing Degree Days 26 (Base 50)    
Moisture  
Dew Point 61 °F    
Average Humidity 66    
Maximum Humidity 93    
Minimum Humidity 34    
Precipitation  
Precipitation 0.07 in - - ()
Sea Level Pressure  
Sea Level Pressure 29.97 in    
Wind  
Wind Speed 9 mph ()    
Max Wind Speed 15 mph    
Max Gust Speed 21 mph    
Visibility 9.7 miles    
Events Rain    
Averages and records for this station are not official NWS values.
T = Trace of Precipitation, MM = Missing Value Source: Averaged Metar Reports

Daily Weather History Graph

Daily Weather History Graph

Search for Another Location

Airport or City:

Astronomy

Sep. 23, 2019 Rise Set
Actual Time 7:26 AM EDT 7:33 PM EDT
Civil Twilight 6:59 AM EDT 8:00 PM EDT
Nautical Twilight 6:28 AM EDT 8:31 PM EDT
Astronomical Twilight 5:56 AM EDT 9:02 PM EDT
Moon 1:11 AM EDT (9/23) 4:23 PM EDT (9/23)
Length of Visible Light 13h 00m
Length of Day
12h 07m
Waning Crescent, 33% of the Moon is Illuminated
Sep 23
Waning Crescent
Sep 28
New
Oct 5
First Quarter
Oct 13
Full
Oct 21
Last Quarter

Hourly Weather History & Observations

Time (EDT) Temp. Heat Index Dew Point Humidity Pressure Visibility Wind Dir Wind Speed Gust Speed Precip Events Conditions
12:53 AM 75.0 °F - 57.0 °F 53% 29.97 in 10.0 mi South 10.4 mph - N/A   Mostly Cloudy
1:53 AM 75.0 °F - 57.0 °F 53% 29.96 in 10.0 mi SSW 10.4 mph - N/A   Overcast
2:53 AM 75.0 °F - 57.9 °F 55% 29.96 in 10.0 mi SW 5.8 mph - N/A   Overcast
3:53 AM 72.0 °F - 62.1 °F 71% 29.95 in 10.0 mi SSW 9.2 mph - 0.00 in Rain Light Rain
4:53 AM 70.0 °F - 64.9 °F 84% 29.95 in 10.0 mi SSW 11.5 mph - 0.01 in Rain Light Rain
5:53 AM 70.0 °F - 66.9 °F 90% 29.95 in 10.0 mi SW 9.2 mph - 0.02 in   Clear
6:35 AM 71.1 °F - 68.0 °F 90% 29.97 in 8.0 mi SW 13.8 mph - 0.01 in Rain Light Rain
6:53 AM 70.0 °F - 68.0 °F 93% 29.96 in 8.0 mi SSW 12.7 mph - 0.04 in Rain Light Rain
7:53 AM 70.0 °F - 68.0 °F 93% 29.96 in 8.0 mi SSW 9.2 mph - 0.00 in   Scattered Clouds
8:53 AM 71.1 °F - 69.1 °F 93% 29.96 in 8.0 mi SW 9.2 mph - 0.00 in   Overcast
9:53 AM 73.0 °F - 69.1 °F 87% 29.98 in 10.0 mi SW 8.1 mph - N/A   Overcast
10:53 AM 73.0 °F - 69.1 °F 87% 29.97 in 10.0 mi WSW 10.4 mph - N/A   Overcast
11:53 AM 73.9 °F - 70.0 °F 87% 29.97 in 10.0 mi SW 8.1 mph - 0.00 in   Overcast
12:53 PM 79.0 °F - 70.0 °F 74% 29.96 in 10.0 mi WSW 8.1 mph - N/A   Overcast
1:00 PM 79.0 °F - 70.0 °F 74% 29.97 in 10.0 mi SW 8.1 mph - N/A   Partly Cloudy
1:53 PM 79.0 °F - 66.9 °F 66% 29.95 in 10.0 mi WSW 10.4 mph 17.3 mph N/A   Mostly Cloudy
2:53 PM 84.9 °F 85.9 °F 63.0 °F 48% 29.94 in 10.0 mi WNW 13.8 mph 20.7 mph N/A   Mostly Cloudy
3:53 PM 84.0 °F 83.0 °F 55.9 °F 38% 29.94 in 10.0 mi West 15.0 mph - N/A   Scattered Clouds
4:53 PM 84.0 °F 82.5 °F 53.1 °F 34% 29.94 in 10.0 mi West 13.8 mph - N/A   Partly Cloudy
5:53 PM 82.9 °F - 52.0 °F 34% 29.95 in 10.0 mi WNW 13.8 mph 19.6 mph N/A   Partly Cloudy
6:53 PM 80.1 °F 79.9 °F 53.1 °F 39% 29.96 in 10.0 mi WNW 12.7 mph 17.3 mph N/A   Partly Cloudy
7:53 PM 75.0 °F - 53.1 °F 46% 29.98 in 10.0 mi NNW 9.2 mph - N/A   Clear
8:53 PM 73.0 °F - 54.0 °F 51% 29.99 in 10.0 mi NNW 8.1 mph - N/A   Clear
9:53 PM 70.0 °F - 52.0 °F 53% 30.02 in 10.0 mi North 6.9 mph - N/A   Clear
10:53 PM 68.0 °F - 48.9 °F 50% 30.03 in 10.0 mi North 6.9 mph - N/A   Clear
11:53 PM 62.1 °F - 52.0 °F 70% 30.03 in 10.0 mi ENE 4.6 mph - N/A   Clear